Terminal Aerodrome Forecast
Issued by NWS La Crosse, WI

Home | Current Version | Previous Version | Text Only | Print | Product List | Glossary On
Versions: 1 2 3 4 5 6 7 8 9 10 11 12 13 14 15 16 17 18 19 20 21 22 23 24 25 26 27 28 29 30 31 32 33 34 35 36 37 38 39 40 41 42 43 44 45
000
FTUS43 KARX 251125
TAFRST
TAF
KRST 251125Z 2512/2612 04015KT P6SM OVC008
     FM251400 04014KT P6SM OVC011
     FM251600 04012KT P6SM OVC015
     FM251800 04010KT P6SM BKN020
     FM252100 03008KT P6SM SCT025
     FM260100 16006KT P6SM BKN150
     FM260700 19012KT P6SM BKN090=

USA.gov is the U.S. government's official web portal to all federal, state and local government web resources and services.